User: anonymous   Login
Location: ??????
(55.4348°N, 39.2112°E)
Time: 00:32:45
(UTC+00:00)
Language:

Meteor 1-28 Rocket - Orbit

View from above orbital plane
View from above orbital plane
View from above satellite
View from above satellite

Ground track
Ground track

The orbit data is extracted from the following two-line orbital elements,

1 10114U 77057B   24168.90021714  .00008192  00000-0  30229-3 0  9997
2 10114  97.5090 313.2183 0011014  28.2035 331.9798 15.27984886571446
Epoch (UTC): 16 June 2024 21:36:18
Eccentricity: 0.0011014
inclination: 97.5090°
perigee height: 474 km
apogee height: 489 km
right ascension of ascending node: 313.2183°
argument of perigee: 28.2035°
revolutions per day: 15.27984886
mean anomaly at epoch: 331.9798°
orbit number at epoch: 57144

The dashed part of the orbit path shows where the satellite is in the earth's shadow,  

DLR